This demonstration page uses our WeatherBlox Daily Observations layout. Learn more.

Left ArrowRight Arrow

34.74481, -87.66753

Hourly Observations for April 10, 2015

Temp ( °F °C ) Dew Point ( °F °C ) Humidity (%) Winds ( mph kmh ) Pressure ( in mb ) Visibility ( mi km ) Precip ( " mm )
12:53 am 00:53 Mostly Clear 75 23.9 63 17.2 66 66 SSW 13 20 29.92 1013 10 16 0.00 0.00
1:22 am 01:22 Cloudy with Thunderstorms 73 22.8 64 17.8 74 74 SSW 12 19 29.91 1013 10 16 0.00 0.03
1:53 am 01:53 Cloudy with Nearby Thunderstorms 71 21.7 66 18.9 84 84 SW 9 15 29.92 1013 10 16 0.17 4.32
2:26 am 02:26 Cloudy with Nearby Thunderstorms 68 20 64 17.8 87 87 WSW 28 44 29.94 1014 2 3 0.19 4.83
2:32 am 02:32 Cloudy with Nearby Thunderstorms 66 18.9 62 16.7 87 87 W 16 26 29.94 1014 2 3 0.22 5.59
2:35 am 02:35 Cloudy with Thunderstorms 66 18.9 62 16.7 87 87 W 15 24 29.94 1014 4 6 0.23 5.84
3:02 am 03:02 Cloudy with Nearby Thunderstorms 66 18.9 62 16.7 87 87 WSW 10 17 29.94 1014 7 11 0.02 0.51
3:38 am 03:38 Cloudy with Strong Thunderstorms 65 18.3 62 16.7 90 90 WSW 12 19 29.94 1014 4 6 0.17 4.32
3:53 am 03:53 Cloudy with Rain 66 18.9 62 16.7 87 87 W 12 19 29.93 1014 8 13 0.20 5.08
4:53 am 04:53 Cloudy with Light Rain 65 18.3 62 16.7 90 90 SW 6 9 29.93 1014 7 11 0.08 2.03
6:18 am 06:18 Mostly Cloudy 65 18.3 62 16.7 90 90 WSW 8 13 29.97 1015 10 16 0.00 0.00
6:49 am 06:49 Cloudy 66 19 63 17 88 88 W 14 22 30.00 1016 10 16 0.00 0.00
6:53 am 06:53 Cloudy 66 18.9 62 16.7 87 87 W 14 22 30.00 1016 10 16 0.00 0.00
7:35 am 07:35 Cloudy 62 16.7 57 13.9 84 84 NNW 12 19 30.00 1016 10 16 0.00 0.00
7:51 am 07:51 Cloudy 61 16 54 12 77 77 NW 10 17 30.03 1017 10 16 0.00 0.00
7:53 am 07:53 Cloudy 61 16.1 54 12.2 78 78 NW 12 19 30.04 1017 10 16 0.00 0.00
8:53 am 08:53 Cloudy 61 16.1 53 11.7 75 75 NW 10 17 30.06 1018 10 16 0.00 0.00
9:14 am 09:14 Mostly Cloudy 61 16.1 53 11.7 75 75 NNW 8 13 30.03 1017 10 16 0.00 0.00
9:25 am 09:25 Mostly Cloudy 62 16.7 54 12.2 75 75 NNW 9 15 30.03 1017 10 16 0.00 0.00
9:44 am 09:44 Cloudy 62 16.7 53 11.7 73 73 NNW 9 15 30.06 1018 10 16 0.00 0.00
9:53 am 09:53 Cloudy 62 16.7 53 11.7 73 73 NW 9 15 30.07 1018 10 16 0.00 0.00
10:41 am 10:41 Mostly Cloudy 64 17.8 54 12.2 70 70 NNW 6 9 30.09 1019 10 16 0.00 0.00
10:53 am 10:53 Mostly Cloudy 64 17.8 53 11.7 68 68 NNW 9 15 30.09 1019 10 16 0.00 0.00
11:10 am 11:10 Partly Cloudy 65 18.3 53 11.7 66 66 undefined N/A 30.09 1019 10 16 0.00 0.00
11:53 am 11:53 Sunny 64 17.8 51 10.6 63 63 NW 8 13 30.10 1019 10 16 0.00 0.00
12:53 pm 12:53 Sunny 65 18.3 52 11.1 63 63 NNW 7 11 30.09 1019 10 16 0.00 0.00
1:53 pm 13:53 Sunny 64 17.8 50 10 60 60 NNW 7 11 30.08 1019 10 16 0.00 0.00
2:53 pm 14:53 Sunny 67 19.4 52 11.1 59 59 NNW 8 13 30.07 1018 10 16 0.00 0.00
3:53 pm 15:53 Sunny 68 20 51 10.6 55 55 Calm 30.06 1018 10 16 0.00 0.00
4:53 pm 16:53 Sunny 67 19.4 52 11.1 59 59 SE 3 6 30.06 1018 10 16 0.00 0.00
5:53 pm 17:53 Sunny 66 18.9 51 10.6 59 59 VRB 5 7 30.05 1018 10 16 0.00 0.00
6:53 pm 18:53 Sunny 64 17.8 53 11.7 68 68 Calm 30.06 1018 10 16 0.00 0.00
7:53 pm 19:53 Clear 62 16.7 49 9.4 62 62 NNW 5 7 30.08 1019 10 16 0.00 0.00
8:53 pm 20:53 Clear 61 16.1 47 8.3 60 60 NNW 5 7 30.12 1020 10 16 0.00 0.00
9:53 pm 21:53 Clear 60 15.6 45 7.2 58 58 NNW 5 7 30.13 1020 10 16 0.00 0.00
10:53 pm 22:53 Clear 58 14.4 43 6.1 58 58 N 5 7 30.14 1021 10 16 0.00 0.00
11:53 pm 23:53 Clear 57 13.9 41 5 55 55 N 6 9 30.14 1021 10 16 0.00 0.00

Powered by AerisWeather